����������;��������(kVARh)
2017-10-09 00:00;3,25
2017-10-09 00:15;8,65
2017-10-09 00:30;9,1
2017-10-09 00:45;9,95
2017-10-09 01:00;9,7
2017-10-09 01:15;12,2
2017-10-09 01:30;11,65
2017-10-09 01:45;13
2017-10-09 02:00;11,05
2017-10-09 02:15;12,05
2017-10-09 02:30;11,05
2017-10-09 02:45;13,35
2017-10-09 03:00;12,5
2017-10-09 03:15;13,9
2017-10-09 03:30;11,6
2017-10-09 03:45;12,95
2017-10-09 04:00;11,25
2017-10-09 04:15;12,2
2017-10-09 04:30;12,4
2017-10-09 04:45;13,2
2017-10-09 05:00;10,85
2017-10-09 05:15;11,35
2017-10-09 05:30;7,3
2017-10-09 05:45;8
2017-10-09 06:00;5,9
2017-10-09 06:15;7,7
2017-10-09 06:30;7,2
2017-10-09 06:45;7,25
2017-10-09 07:00;6,75
2017-10-09 07:15;8,8
2017-10-09 07:30;12,8
2017-10-09 07:45;20,5
2017-10-09 08:00;19,9
2017-10-09 08:15;16,8
2017-10-09 08:30;29,1
2017-10-09 08:45;42
2017-10-09 09:00;36,75
2017-10-09 09:15;39,25
2017-10-09 09:30;35,2
2017-10-09 09:45;34,85
2017-10-09 10:00;32,65
2017-10-09 10:15;34,9
2017-10-09 10:30;35,6
2017-10-09 10:45;37,65
2017-10-09 11:00;37,15
2017-10-09 11:15;39,8
2017-10-09 11:30;40,1
2017-10-09 11:45;41,3
2017-10-09 12:00;43,2
2017-10-09 12:15;46,45
2017-10-09 12:30;44,75
2017-10-09 12:45;43,4
2017-10-09 13:00;42,65
2017-10-09 13:15;45,65
2017-10-09 13:30;47,15
2017-10-09 13:45;50,25
2017-10-09 14:00;49,75
2017-10-09 14:15;45,35
2017-10-09 14:30;46,8
2017-10-09 14:45;46,95
2017-10-09 15:00;50,4
2017-10-09 15:15;45,55
2017-10-09 15:30;43,4
2017-10-09 15:45;41,75
2017-10-09 16:00;44,25
2017-10-09 16:15;39,7
2017-10-09 16:30;37,6
2017-10-09 16:45;39,4
2017-10-09 17:00;37,4
2017-10-09 17:15;38,95
2017-10-09 17:30;39,85
2017-10-09 17:45;35,15
2017-10-09 18:00;33,25
2017-10-09 18:15;35,05
2017-10-09 18:30;31,15
2017-10-09 18:45;29,35
2017-10-09 19:00;33,15
2017-10-09 19:15;28,2
2017-10-09 19:30;21,05
2017-10-09 19:45;19,65
2017-10-09 20:00;18,35
2017-10-09 20:15;18,5
2017-10-09 20:30;17
2017-10-09 20:45;18,9
2017-10-09 21:00;17,75
2017-10-09 21:15;18,5
2017-10-09 21:30;18,15
2017-10-09 21:45;14,85
2017-10-09 22:00;15,35
2017-10-09 22:15;10,15
2017-10-09 22:30;10,15
2017-10-09 22:45;8,8
2017-10-09 23:00;12,25
2017-10-09 23:15;11,25
2017-10-09 23:30;2,7
2017-10-09 23:45;1,8
2017-10-10 00:00;2,35
2017-10-10 00:15;6,8
2017-10-10 00:30;6,6
2017-10-10 00:45;7,3
2017-10-10 01:00;6,6
2017-10-10 01:15;8,05
2017-10-10 01:30;2,25
2017-10-10 01:45;3,4
2017-10-10 02:00;4
2017-10-10 02:15;2,15
2017-10-10 02:30;2,15
2017-10-10 02:45;1,95
2017-10-10 03:00;1,6
2017-10-10 03:15;1,5
2017-10-10 03:30;2,15
2017-10-10 03:45;3,55
2017-10-10 04:00;2,75
2017-10-10 04:15;2,9
2017-10-10 04:30;1,9
2017-10-10 04:45;1,4
2017-10-10 05:00;2,6
2017-10-10 05:15;3,45
2017-10-10 05:30;2,35
2017-10-10 05:45;0,9
2017-10-10 06:00;1,8
2017-10-10 06:15;1,05
2017-10-10 06:30;1,6
2017-10-10 06:45;1,8
2017-10-10 07:00;1,25
2017-10-10 07:15;2,1
2017-10-10 07:30;4,9
2017-10-10 07:45;7,8
2017-10-10 08:00;13,75
2017-10-10 08:15;17,3
2017-10-10 08:30;20,3
2017-10-10 08:45;23,8
2017-10-10 09:00;30,15
2017-10-10 09:15;38,85
2017-10-10 09:30;40,95
2017-10-10 09:45;39,6
2017-10-10 10:00;41,3
2017-10-10 10:15;44,55
2017-10-10 10:30;44,7
2017-10-10 10:45;45
2017-10-10 11:00;44,6
2017-10-10 11:15;45,2
2017-10-10 11:30;47,25
2017-10-10 11:45;52,8
2017-10-10 12:00;54,9
2017-10-10 12:15;50,1
2017-10-10 12:30;51,15
2017-10-10 12:45;50,95
2017-10-10 13:00;49,8
2017-10-10 13:15;57,95
2017-10-10 13:30;57,45
2017-10-10 13:45;58,6
2017-10-10 14:00;55,35
2017-10-10 14:15;54,25
2017-10-10 14:30;55,55
2017-10-10 14:45;54,85
2017-10-10 15:00;54,75
2017-10-10 15:15;51,8
2017-10-10 15:30;50,85
2017-10-10 15:45;49,85
2017-10-10 16:00;45,5
2017-10-10 16:15;45,5
2017-10-10 16:30;42,4
2017-10-10 16:45;43,35
2017-10-10 17:00;42,75
2017-10-10 17:15;40,85
2017-10-10 17:30;41,4
2017-10-10 17:45;36,45
2017-10-10 18:00;33,3
2017-10-10 18:15;35,3
2017-10-10 18:30;38,75
2017-10-10 18:45;33,4
2017-10-10 19:00;32,55
2017-10-10 19:15;26,45
2017-10-10 19:30;24,3
2017-10-10 19:45;22,1
2017-10-10 20:00;20,95
2017-10-10 20:15;18,75
2017-10-10 20:30;18,1
2017-10-10 20:45;17,9
2017-10-10 21:00;17,55
2017-10-10 21:15;19,95
2017-10-10 21:30;15,65
2017-10-10 21:45;17,4
2017-10-10 22:00;21,3
2017-10-10 22:15;27,2
2017-10-10 22:30;23,65
2017-10-10 22:45;22,15
2017-10-10 23:00;18,3
2017-10-10 23:15;9,5
2017-10-10 23:30;5
2017-10-10 23:45;5,7
2017-10-11 00:00;7,35
2017-10-11 00:15;10,15
2017-10-11 00:30;9,1
2017-10-11 00:45;8,75
2017-10-11 01:00;8,35
2017-10-11 01:15;10,3
2017-10-11 01:30;10,35
2017-10-11 01:45;10,9
2017-10-11 02:00;10,6
2017-10-11 02:15;12,8
2017-10-11 02:30;12,05
2017-10-11 02:45;10,65
2017-10-11 03:00;12,55
2017-10-11 03:15;13,3
2017-10-11 03:30;13,75
2017-10-11 03:45;12,85
2017-10-11 04:00;15,55
2017-10-11 04:15;15,4
2017-10-11 04:30;14,1
2017-10-11 04:45;15,05
2017-10-11 05:00;14,15
2017-10-11 05:15;14,75
2017-10-11 05:30;15,45
2017-10-11 05:45;13,4
2017-10-11 06:00;14,5
2017-10-11 06:15;14,6
2017-10-11 06:30;20,75
2017-10-11 06:45;19,35
2017-10-11 07:00;18,5
2017-10-11 07:15;20
2017-10-11 07:30;16,6
2017-10-11 07:45;20,25
2017-10-11 08:00;23,75
2017-10-11 08:15;25,6
2017-10-11 08:30;26,05
2017-10-11 08:45;23,05
2017-10-11 09:00;26,4
2017-10-11 09:15;26,9
2017-10-11 09:30;32,7
2017-10-11 09:45;38
2017-10-11 10:00;45,9
2017-10-11 10:15;42,7
2017-10-11 10:30;43,9
2017-10-11 10:45;48,95
2017-10-11 11:00;49,15
2017-10-11 11:15;45,55
2017-10-11 11:30;42,55
2017-10-11 11:45;43,05
2017-10-11 12:00;43,4
2017-10-11 12:15;44
2017-10-11 12:30;44,05
2017-10-11 12:45;38,7
2017-10-11 13:00;40,5
2017-10-11 13:15;40,9
2017-10-11 13:30;40,5
2017-10-11 13:45;39,25
2017-10-11 14:00;39,1
2017-10-11 14:15;41,1
2017-10-11 14:30;43
2017-10-11 14:45;43,4
2017-10-11 15:00;41,9
2017-10-11 15:15;39,7
2017-10-11 15:30;42,5
2017-10-11 15:45;40,9
2017-10-11 16:00;37,95
2017-10-11 16:15;40,75
2017-10-11 16:30;41,2
2017-10-11 16:45;39,25
2017-10-11 17:00;35,5
2017-10-11 17:15;34,6
2017-10-11 17:30;32,95
2017-10-11 17:45;29,55
2017-10-11 18:00;31,65
2017-10-11 18:15;33,2
2017-10-11 18:30;31,9
2017-10-11 18:45;24,55
2017-10-11 19:00;21,85
2017-10-11 19:15;18,05
2017-10-11 19:30;14,6
2017-10-11 19:45;12,2
2017-10-11 20:00;8,8
2017-10-11 20:15;4,25
2017-10-11 20:30;5,2
2017-10-11 20:45;5,85
2017-10-11 21:00;5,85
2017-10-11 21:15;7
2017-10-11 21:30;7
2017-10-11 21:45;6,35
2017-10-11 22:00;6,4
2017-10-11 22:15;4,4
2017-10-11 22:30;2,4
2017-10-11 22:45;2,6
2017-10-11 23:00;5,2
2017-10-11 23:15;2,5
2017-10-11 23:30;2
2017-10-11 23:45;0,7
2017-10-12 00:00;0,5
2017-10-12 00:15;1,75
2017-10-12 00:30;1,45
2017-10-12 00:45;2,6
2017-10-12 01:00;1,75
2017-10-12 01:15;1,4
2017-10-12 01:30;1,7
2017-10-12 01:45;3,4
2017-10-12 02:00;3,6
2017-10-12 02:15;2,85
2017-10-12 02:30;3,3
2017-10-12 02:45;2,1
2017-10-12 03:00;2,9
2017-10-12 03:15;4
2017-10-12 03:30;2,8
2017-10-12 03:45;2,45
2017-10-12 04:00;1,75
2017-10-12 04:15;1,35
2017-10-12 04:30;5,9
2017-10-12 04:45;7,7
2017-10-12 05:00;9
2017-10-12 05:15;7,45
2017-10-12 05:30;8,35
2017-10-12 05:45;8,05
2017-10-12 06:00;7,3
2017-10-12 06:15;8,55
2017-10-12 06:30;6,45
2017-10-12 06:45;11,05
2017-10-12 07:00;15,75
2017-10-12 07:15;13,5
2017-10-12 07:30;15,3
2017-10-12 07:45;18,1
2017-10-12 08:00;20,15
2017-10-12 08:15;22,5
2017-10-12 08:30;22,4
2017-10-12 08:45;28,45
2017-10-12 09:00;31,55
2017-10-12 09:15;34,25
2017-10-12 09:30;34,2
2017-10-12 09:45;31,9
2017-10-12 10:00;31,9
2017-10-12 10:15;31,8
2017-10-12 10:30;32,8
2017-10-12 10:45;37,15
2017-10-12 11:00;41,95
2017-10-12 11:15;43,9
2017-10-12 11:30;36,9
2017-10-12 11:45;38,9
2017-10-12 12:00;37,55
2017-10-12 12:15;39,25
2017-10-12 12:30;39,6
2017-10-12 12:45;36,65
2017-10-12 13:00;38,5
2017-10-12 13:15;38,05
2017-10-12 13:30;40,4
2017-10-12 13:45;39,4
2017-10-12 14:00;36,25
2017-10-12 14:15;38,05
2017-10-12 14:30;42,1
2017-10-12 14:45;43,55
2017-10-12 15:00;74,45
2017-10-12 15:15;66,15
2017-10-12 15:30;50,15
2017-10-12 15:45;46,9
2017-10-12 16:00;46,1
2017-10-12 16:15;50,95
2017-10-12 16:30;44,9
2017-10-12 16:45;43,7
2017-10-12 17:00;38,15
2017-10-12 17:15;49,9
2017-10-12 17:30;37
2017-10-12 17:45;33,9
2017-10-12 18:00;37
2017-10-12 18:15;34,4
2017-10-12 18:30;29,45
2017-10-12 18:45;23,75
2017-10-12 19:00;26,5
2017-10-12 19:15;21,35
2017-10-12 19:30;18,85
2017-10-12 19:45;18
2017-10-12 20:00;17,75
2017-10-12 20:15;19,4
2017-10-12 20:30;18,1
2017-10-12 20:45;15,65
2017-10-12 21:00;17,1
2017-10-12 21:15;19,3
2017-10-12 21:30;21,45
2017-10-12 21:45;21,85
2017-10-12 22:00;22,65
2017-10-12 22:15;17,35
2017-10-12 22:30;12,4
2017-10-12 22:45;9,9
2017-10-12 23:00;10,45
2017-10-12 23:15;6,8
2017-10-12 23:30;6,9
2017-10-12 23:45;1,5
2017-10-13 00:00;2,25
2017-10-13 00:15;5,9
2017-10-13 00:30;4,05
2017-10-13 00:45;5,8
2017-10-13 01:00;6,95
2017-10-13 01:15;12,25
2017-10-13 01:30;8,35
2017-10-13 01:45;10,05
2017-10-13 02:00;10,1
2017-10-13 02:15;8,75
2017-10-13 02:30;8,05
2017-10-13 02:45;12,2
2017-10-13 03:00;10,1
2017-10-13 03:15;7,85
2017-10-13 03:30;10,7
2017-10-13 03:45;9,1
2017-10-13 04:00;9
2017-10-13 04:15;9,85
2017-10-13 04:30;12,75
2017-10-13 04:45;9,7
2017-10-13 05:00;8,45
2017-10-13 05:15;9,4
2017-10-13 05:30;10
2017-10-13 05:45;8,85
2017-10-13 06:00;14,2
2017-10-13 06:15;12,15
2017-10-13 06:30;8,75
2017-10-13 06:45;10,7
2017-10-13 07:00;14,45
2017-10-13 07:15;16
2017-10-13 07:30;13,95
2017-10-13 07:45;30,75
2017-10-13 08:00;18,95
2017-10-13 08:15;23,5
2017-10-13 08:30;18,5
2017-10-13 08:45;25,8
2017-10-13 09:00;29,8
2017-10-13 09:15;32,4
2017-10-13 09:30;33,3
2017-10-13 09:45;32,85
2017-10-13 10:00;35,7
2017-10-13 10:15;35,25
2017-10-13 10:30;35,7
2017-10-13 10:45;35,2
2017-10-13 11:00;40,2
2017-10-13 11:15;41,5
2017-10-13 11:30;41,3
2017-10-13 11:45;43,85
2017-10-13 12:00;40,45
2017-10-13 12:15;42,1
2017-10-13 12:30;41,75
2017-10-13 12:45;42,05
2017-10-13 13:00;40,9
2017-10-13 13:15;41,4
2017-10-13 13:30;44,75
2017-10-13 13:45;45,9
2017-10-13 14:00;43,45
2017-10-13 14:15;45,5
2017-10-13 14:30;44,05
2017-10-13 14:45;45,3
2017-10-13 15:00;45,35
2017-10-13 15:15;38,2
2017-10-13 15:30;39,9
2017-10-13 15:45;40,8
2017-10-13 16:00;41,25
2017-10-13 16:15;40,6
2017-10-13 16:30;36,55
2017-10-13 16:45;34
2017-10-13 17:00;35,4
2017-10-13 17:15;34,8
2017-10-13 17:30;32,3
2017-10-13 17:45;32,4
2017-10-13 18:00;26,6
2017-10-13 18:15;24,5
2017-10-13 18:30;23,3
2017-10-13 18:45;18,1
2017-10-13 19:00;18
2017-10-13 19:15;15,75
2017-10-13 19:30;12,55
2017-10-13 19:45;14,55
2017-10-13 20:00;10,75
2017-10-13 20:15;11,6
2017-10-13 20:30;11,3
2017-10-13 20:45;12,9
2017-10-13 21:00;11,5
2017-10-13 21:15;12,1
2017-10-13 21:30;16,6
2017-10-13 21:45;15,45
2017-10-13 22:00;16,4
2017-10-13 22:15;10,6
2017-10-13 22:30;13,2
2017-10-13 22:45;11,9
2017-10-13 23:00;7,4
2017-10-13 23:15;4,25
2017-10-13 23:30;3,45
2017-10-13 23:45;4,65
2017-10-14 00:00;5,35
2017-10-14 00:15;3,1
2017-10-14 00:30;2,15
2017-10-14 00:45;5,3
2017-10-14 01:00;6,05
2017-10-14 01:15;7,05
2017-10-14 01:30;6,7
2017-10-14 01:45;3,6
2017-10-14 02:00;4,95
2017-10-14 02:15;4,45
2017-10-14 02:30;5,6
2017-10-14 02:45;4,75
2017-10-14 03:00;5,05
2017-10-14 03:15;5,4
2017-10-14 03:30;5
2017-10-14 03:45;6,2
2017-10-14 04:00;5,2
2017-10-14 04:15;6,9
2017-10-14 04:30;4,8
2017-10-14 04:45;5,1
2017-10-14 05:00;5,95
2017-10-14 05:15;5,25
2017-10-14 05:30;7,7
2017-10-14 05:45;4,55
2017-10-14 06:00;4,25
2017-10-14 06:15;3,25
2017-10-14 06:30;3,05
2017-10-14 06:45;2,8
2017-10-14 07:00;2,9
2017-10-14 07:15;3,65
2017-10-14 07:30;2,3
2017-10-14 07:45;4,2
2017-10-14 08:00;2,9
2017-10-14 08:15;1,15
2017-10-14 08:30;1,75
2017-10-14 08:45;1,65
2017-10-14 09:00;11,25
2017-10-14 09:15;10,35
2017-10-14 09:30;9,6
2017-10-14 09:45;9,9
2017-10-14 10:00;12,85
2017-10-14 10:15;13,7
2017-10-14 10:30;13,15
2017-10-14 10:45;10,15
2017-10-14 11:00;12,8
2017-10-14 11:15;11,35
2017-10-14 11:30;11,4
2017-10-14 11:45;13,1
2017-10-14 12:00;11,8
2017-10-14 12:15;12,65
2017-10-14 12:30;11,25
2017-10-14 12:45;13,05
2017-10-14 13:00;14,1
2017-10-14 13:15;12,5
2017-10-14 13:30;14,15
2017-10-14 13:45;12,25
2017-10-14 14:00;13,5
2017-10-14 14:15;12,45
2017-10-14 14:30;14,3
2017-10-14 14:45;14,95
2017-10-14 15:00;14,2
2017-10-14 15:15;12,3
2017-10-14 15:30;14,7
2017-10-14 15:45;13,25
2017-10-14 16:00;15,1
2017-10-14 16:15;15
2017-10-14 16:30;14,65
2017-10-14 16:45;16
2017-10-14 17:00;15,75
2017-10-14 17:15;15,55
2017-10-14 17:30;18,3
2017-10-14 17:45;18,2
2017-10-14 18:00;19,8
2017-10-14 18:15;18,05
2017-10-14 18:30;15,3
2017-10-14 18:45;15,95
2017-10-14 19:00;13,7
2017-10-14 19:15;13,35
2017-10-14 19:30;10,1
2017-10-14 19:45;9,6
2017-10-14 20:00;10,5
2017-10-14 20:15;9,2
2017-10-14 20:30;10,8
2017-10-14 20:45;10,4
2017-10-14 21:00;12,85
2017-10-14 21:15;10,25
2017-10-14 21:30;10,8
2017-10-14 21:45;12,45
2017-10-14 22:00;11,65
2017-10-14 22:15;10,6
2017-10-14 22:30;8,9
2017-10-14 22:45;9,85
2017-10-14 23:00;7,15
2017-10-14 23:15;4,55
2017-10-14 23:30;6,45
2017-10-14 23:45;7,6
2017-10-15 00:00;6,7
2017-10-15 00:15;8,45
2017-10-15 00:30;7,9
2017-10-15 00:45;10,15
2017-10-15 01:00;10,1
2017-10-15 01:15;11,4
2017-10-15 01:30;10,85
2017-10-15 01:45;11,9
2017-10-15 02:00;12,1
2017-10-15 02:15;12,85
2017-10-15 02:30;14,75
2017-10-15 02:45;14,05
2017-10-15 03:00;13
2017-10-15 03:15;13,45
2017-10-15 03:30;13,35
2017-10-15 03:45;13,15
2017-10-15 04:00;13,35
2017-10-15 04:15;13,9
2017-10-15 04:30;13,7
2017-10-15 04:45;14,55
2017-10-15 05:00;15,2
2017-10-15 05:15;14,5
2017-10-15 05:30;14,8
2017-10-15 05:45;14,55
2017-10-15 06:00;14,85
2017-10-15 06:15;14,55
2017-10-15 06:30;15
2017-10-15 06:45;13,9
2017-10-15 07:00;13,95
2017-10-15 07:15;12,95
2017-10-15 07:30;13,3
2017-10-15 07:45;13,85
2017-10-15 08:00;11,25
2017-10-15 08:15;12,8
2017-10-15 08:30;12,15
2017-10-15 08:45;12,25
2017-10-15 09:00;11,05
2017-10-15 09:15;13,4
2017-10-15 09:30;13,6
2017-10-15 09:45;15,9
2017-10-15 10:00;14,9
2017-10-15 10:15;15,05
2017-10-15 10:30;13,55
2017-10-15 10:45;12,4
2017-10-15 11:00;15,45
2017-10-15 11:15;15,85
2017-10-15 11:30;16,55
2017-10-15 11:45;14,9
2017-10-15 12:00;14,6
2017-10-15 12:15;11,9
2017-10-15 12:30;12
2017-10-15 12:45;13,85
2017-10-15 13:00;13,3
2017-10-15 13:15;13,2
2017-10-15 13:30;12,45
2017-10-15 13:45;12,9
2017-10-15 14:00;12,45
2017-10-15 14:15;13,35
2017-10-15 14:30;15,3
2017-10-15 14:45;12,55
2017-10-15 15:00;13,5
2017-10-15 15:15;12,95
2017-10-15 15:30;12,9
2017-10-15 15:45;14,25
2017-10-15 16:00;13,25
2017-10-15 16:15;13
2017-10-15 16:30;15,15
2017-10-15 16:45;14,25
2017-10-15 17:00;16,5
2017-10-15 17:15;16,9
2017-10-15 17:30;17,25
2017-10-15 17:45;18,15
2017-10-15 18:00;15,1
2017-10-15 18:15;15,85
2017-10-15 18:30;16,85
2017-10-15 18:45;14,6
2017-10-15 19:00;14,1
2017-10-15 19:15;9
2017-10-15 19:30;9,15
2017-10-15 19:45;10,55
2017-10-15 20:00;8,45
2017-10-15 20:15;10,35
2017-10-15 20:30;8,25
2017-10-15 20:45;9,4
2017-10-15 21:00;11,55
2017-10-15 21:15;10,8
2017-10-15 21:30;12,75
2017-10-15 21:45;11,3
2017-10-15 22:00;12,95
2017-10-15 22:15;12,7
2017-10-15 22:30;15,2
2017-10-15 22:45;15,15
2017-10-15 23:00;17,05
2017-10-15 23:15;16,6
2017-10-15 23:30;17,6
2017-10-15 23:45;12,8

